Hourly Weather Bolshoe Ragozino

Today, 2 July, Thursday

Time Temperature Precipitation Wind Pressure Humidity
00:00 +13°C° 0 mm 3 mps 740 mmHg 96%
01:00 +12°C° 0 mm 3 mps 740 mmHg 97%
02:00 +12°C° 0 mm 3 mps 740 mmHg 98%
03:00 +13°C° 0 mm 3 mps 740 mmHg 97%
04:00 +13°C° 0 mm 3 mps 740 mmHg 96%
05:00 +14°C° 0 mm 3 mps 740 mmHg 95%
06:00 +16°C° 0.4 mm 3 mps 740 mmHg 92%
07:00 +17°C° 0.4 mm 3 mps 741 mmHg 90%
08:00 +18°C° 0.4 mm 4 mps 741 mmHg 87%
09:00 +19°C° 0.5 mm 4 mps 741 mmHg 83%
10:00 +19°C° 0.5 mm 4 mps 741 mmHg 79%
11:00 +20°C° 0.5 mm 4 mps 741 mmHg 75%
12:00 +21°C° 0.1 mm 4 mps 741 mmHg 69%
13:00 +22°C° 0.1 mm 4 mps 741 mmHg 62%
14:00 +23°C° 0.1 mm 4 mps 741 mmHg 56%
15:00 +24°C° 0 mm 3 mps 741 mmHg 60%
16:00 +24°C° 0 mm 3 mps 741 mmHg 64%
17:00 +24°C° 0 mm 3 mps 741 mmHg 68%
18:00 +21°C° 0.1 mm 3 mps 741 mmHg 76%
19:00 +19°C° 0.1 mm 2 mps 741 mmHg 83%
20:00 +18°C° 0.1 mm 2 mps 741 mmHg 91%
21:00 +17°C° 0 mm 2 mps 741 mmHg 92%
22:00 +16°C° 0 mm 2 mps 741 mmHg 94%
23:00 +16°C° 0 mm 2 mps 741 mmHg 96%

Tomorrow, 3 July, Friday

Time Temperature Precipitation Wind Pressure Humidity
00:00 +15°C° 0 mm 2 mps 742 mmHg 96%
01:00 +15°C° 0 mm 2 mps 742 mmHg 96%
02:00 +15°C° 0 mm 2 mps 742 mmHg 96%
03:00 +15°C° 0 mm 2 mps 742 mmHg 96%
04:00 +16°C° 0 mm 2 mps 742 mmHg 95%
05:00 +17°C° 0 mm 2 mps 742 mmHg 95%
06:00 +18°C° 0 mm 2 mps 742 mmHg 91%
07:00 +20°C° 0 mm 3 mps 742 mmHg 86%
08:00 +21°C° 0 mm 3 mps 742 mmHg 82%
09:00 +22°C° 0 mm 3 mps 742 mmHg 77%
10:00 +24°C° 0 mm 3 mps 743 mmHg 73%
11:00 +26°C° 0 mm 4 mps 743 mmHg 68%
12:00 +26°C° 0.2 mm 4 mps 743 mmHg 66%
13:00 +26°C° 0.2 mm 4 mps 743 mmHg 64%
14:00 +26°C° 0.2 mm 4 mps 743 mmHg 61%
15:00 +26°C° 0 mm 4 mps 743 mmHg 63%
16:00 +26°C° 0 mm 3 mps 743 mmHg 64%
17:00 +25°C° 0 mm 2 mps 743 mmHg 66%
18:00 +24°C° 0 mm 2 mps 743 mmHg 69%
19:00 +21°C° 0 mm 2 mps 743 mmHg 73%
20:00 +20°C° 0 mm 1 mps 743 mmHg 76%
21:00 +20°C° 0 mm 1 mps 743 mmHg 76%
22:00 +19°C° 0 mm 1 mps 743 mmHg 76%
23:00 +19°C° 0 mm 1 mps 744 mmHg 76%

Day after tomorrow, 4 July, Saturday

Time Temperature Precipitation Wind Pressure Humidity
00:00 +19°C° 0 mm 1 mps 743 mmHg 77%
01:00 +18°C° 0 mm 1 mps 743 mmHg 78%
02:00 +18°C° 0 mm 1 mps 743 mmHg 79%
03:00 +17°C° 0.6 mm 2 mps 743 mmHg 84%
04:00 +17°C° 0.6 mm 2 mps 743 mmHg 89%
05:00 +16°C° 0.6 mm 2 mps 743 mmHg 94%
06:00 +16°C° 2.5 mm 1 mps 743 mmHg 95%
07:00 +16°C° 2.5 mm 1 mps 743 mmHg 97%
08:00 +16°C° 2.5 mm 1 mps 743 mmHg 98%
09:00 +18°C° 0.4 mm 1 mps 743 mmHg 97%
10:00 +17°C° 0.4 mm 0 mps 743 mmHg 95%
11:00 +17°C° 0.4 mm 0 mps 743 mmHg 94%
12:00 +21°C° 0 mm 1 mps 743 mmHg 86%
13:00 +22°C° 0 mm 1 mps 743 mmHg 78%
14:00 +24°C° 0 mm 1 mps 743 mmHg 70%
15:00 +24°C° 0.1 mm 1 mps 743 mmHg 72%
16:00 +24°C° 0.1 mm 2 mps 742 mmHg 73%
17:00 +24°C° 0.1 mm 2 mps 742 mmHg 74%
18:00 +23°C° 0.1 mm 1 mps 743 mmHg 79%
19:00 +21°C° 0.1 mm 1 mps 743 mmHg 84%
20:00 +20°C° 0.1 mm 1 mps 743 mmHg 89%
21:00 +19°C° 0 mm 1 mps 743 mmHg 90%
22:00 +17°C° 0 mm 2 mps 743 mmHg 90%
23:00 +16°C° 0 mm 2 mps 744 mmHg 91%

5 July, Sunday

Time Temperature Precipitation Wind Pressure Humidity
00:00 +15°C° 0 mm 2 mps 744 mmHg 89%
01:00 +15°C° 0 mm 2 mps 744 mmHg 87%
02:00 +14°C° 0 mm 2 mps 744 mmHg 85%
03:00 +14°C° 0 mm 2 mps 744 mmHg 85%
04:00 +14°C° 0 mm 2 mps 744 mmHg 85%
05:00 +15°C° 0 mm 2 mps 744 mmHg 85%
06:00 +17°C° 0 mm 2 mps 744 mmHg 78%
07:00 +19°C° 0 mm 2 mps 744 mmHg 72%
08:00 +20°C° 0 mm 2 mps 744 mmHg 65%
09:00 +21°C° 0 mm 3 mps 744 mmHg 63%
10:00 +22°C° 0 mm 3 mps 744 mmHg 61%
11:00 +24°C° 0 mm 3 mps 744 mmHg 59%
12:00 +25°C° 0 mm 3 mps 744 mmHg 60%
13:00 +25°C° 0 mm 3 mps 744 mmHg 61%
14:00 +26°C° 0 mm 3 mps 743 mmHg 63%
15:00 +25°C° 0.2 mm 3 mps 743 mmHg 67%
16:00 +25°C° 0.2 mm 3 mps 743 mmHg 70%
17:00 +25°C° 0.2 mm 3 mps 743 mmHg 74%
18:00 +23°C° 0.1 mm 2 mps 743 mmHg 79%
19:00 +21°C° 0.1 mm 2 mps 743 mmHg 83%
20:00 +20°C° 0.1 mm 2 mps 743 mmHg 88%
21:00 +19°C° 0 mm 2 mps 742 mmHg 89%
22:00 +19°C° 0 mm 3 mps 742 mmHg 90%
23:00 +18°C° 0 mm 3 mps 742 mmHg 91%

6 July, Monday

Time Temperature Precipitation Wind Pressure Humidity
00:00 +18°C° 0 mm 3 mps 742 mmHg 92%
01:00 +17°C° 0 mm 3 mps 741 mmHg 93%
02:00 +17°C° 0 mm 3 mps 741 mmHg 95%
03:00 +17°C° 0 mm 3 mps 741 mmHg 93%
04:00 +18°C° 0 mm 4 mps 741 mmHg 91%
05:00 +18°C° 0 mm 4 mps 741 mmHg 90%
06:00 +20°C° 0 mm 5 mps 740 mmHg 84%
07:00 +21°C° 0 mm 5 mps 740 mmHg 79%
08:00 +22°C° 0 mm 6 mps 740 mmHg 74%
09:00 +23°C° 0 mm 6 mps 739 mmHg 71%
10:00 +24°C° 0 mm 7 mps 739 mmHg 68%
11:00 +26°C° 0 mm 7 mps 739 mmHg 66%
12:00 +24°C° 0.5 mm 7 mps 739 mmHg 72%
13:00 +24°C° 0.5 mm 6 mps 738 mmHg 78%
14:00 +23°C° 0.5 mm 6 mps 738 mmHg 84%
15:00 +23°C° 0.2 mm 6 mps 738 mmHg 82%
16:00 +23°C° 0.2 mm 6 mps 738 mmHg 81%
17:00 +23°C° 0.2 mm 6 mps 738 mmHg 79%
18:00 +22°C° 0.1 mm 5 mps 738 mmHg 83%
19:00 +21°C° 0.1 mm 4 mps 738 mmHg 86%
20:00 +20°C° 0.1 mm 4 mps 739 mmHg 90%
21:00 +19°C° 0 mm 4 mps 739 mmHg 91%
22:00 +18°C° 0 mm 3 mps 739 mmHg 91%
23:00 +18°C° 0 mm 3 mps 739 mmHg 92%

7 July, Tuesday

Time Temperature Precipitation Wind Pressure Humidity
00:00 +17°C° 0 mm 3 mps 739 mmHg 93%
01:00 +17°C° 0 mm 3 mps 740 mmHg 94%
02:00 +16°C° 0 mm 3 mps 740 mmHg 95%
03:00 +16°C° 0 mm 3 mps 740 mmHg 94%
04:00 +17°C° 0 mm 3 mps 740 mmHg 93%
05:00 +17°C° 0 mm 3 mps 740 mmHg 92%
06:00 +19°C° 0 mm 3 mps 740 mmHg 85%
07:00 +21°C° 0 mm 4 mps 740 mmHg 77%
08:00 +22°C° 0 mm 5 mps 740 mmHg 70%
09:00 +23°C° 0.2 mm 5 mps 740 mmHg 71%
10:00 +23°C° 0.2 mm 6 mps 740 mmHg 72%
11:00 +24°C° 0.2 mm 6 mps 740 mmHg 74%
12:00 +24°C° 0.1 mm 6 mps 740 mmHg 68%
13:00 +24°C° 0.1 mm 6 mps 740 mmHg 62%
14:00 +26°C° 0.1 mm 5 mps 740 mmHg 56%
15:00 +26°C° 0 mm 5 mps 740 mmHg 58%
16:00 +25°C° 0 mm 5 mps 741 mmHg 59%
17:00 +25°C° 0 mm 4 mps 741 mmHg 61%
18:00 +22°C° 0 mm 4 mps 741 mmHg 65%
19:00 +20°C° 0 mm 3 mps 741 mmHg 69%
20:00 +18°C° 0 mm 2 mps 741 mmHg 73%
21:00 +17°C° 0 mm 2 mps 741 mmHg 72%
22:00 +16°C° 0 mm 2 mps 742 mmHg 71%
23:00 +15°C° 0 mm 2 mps 742 mmHg 70%
Show more